Regional Weather Roundup
Issued by NWS

Home | Current Version | Previous Version | Graphics & Text | Print | Product List | Glossary On
Versions: 1 2 3 4 5 6 7 8 9 10 11 12 13 14 15 16 17 18 19 20 21 22 23 24 25 26 27 28 29 30 31 32 33 34 35 36 37 38 39 40 41 42 43 44 45 46 47 48 49 50
000
ASUS43 KFSD 280002
RWRSD

WEATHER ROUNDUP FOR SOUTH DAKOTA
NATIONAL WEATHER SERVICE SIOUX FALLS SD
700 PM CDT WED MAY 27 2015

NOTE: "FAIR" INDICATES FEW OR NO CLOUDS BELOW 12,000 FEET WITH NO
SIGNIFICANT WEATHER AND/OR OBSTRUCTIONS TO VISIBILITY.


SDZ001>005-009-010-012>017-280100-
NORTHWEST AND NORTH CENTRAL SOUTH DAKOTA

CITY           SKY/WX    TMP DP  RH WIND       PRES   REMARKS
BUFFALO          N/A     58  55  90 N6        29.87F
FAITH            N/A     62  56  80 SE12      29.92F
MOBRIDGE       CLOUDY    74  50  42 S12       29.91R
$$

SDZ012>016-024>037-041>051-057-063-072>074-280100-
SOUTHWEST AND SOUTH CENTRAL SOUTH DAKOTA

CITY           SKY/WX    TMP DP  RH WIND       PRES   REMARKS
RAPID CTY ARPT PTSUNNY   70  55  59 S8        29.90F
PIERRE         CLOUDY    74  49  41 SE12      29.90F
CUSTER         PTSUNNY   64  47  53 SW7       30.01S
ELLSWORTH AFB  MOSUNNY   70  60  71 N8        29.90F
PHILIP         LGT RAIN  65  56  72 N12       29.89R
PINE RIDGE     CLOUDY    67  53  61 SE9       29.92F
WINNER         FAIR      78  48  34 S16G26    29.95S
$$

SDZ004>011-016>023-039-040-280100-
NORTHEAST SOUTH DAKOTA

CITY           SKY/WX    TMP DP  RH WIND       PRES   REMARKS
ABERDEEN       MOSUNNY   79  49  34 S10       29.93S
WATERTOWN      PTSUNNY   77  50  38 S6        29.97F
BROOKINGS      CLOUDY    81  46  30 S3        29.98F
$$

SDZ017-020-022-023-036>040-048>070-280100-
SOUTHEAST SOUTH DAKOTA

CITY           SKY/WX    TMP DP  RH WIND       PRES   REMARKS
SIOUX FALLS    PTSUNNY   79  51  37 S8        29.98F
HURON            N/A    N/A N/A N/A MISG      29.95S
MITCHELL       CLOUDY    82  51  34 S9        29.96F
YANKTON        MOSUNNY   81  48  32 S10       29.96F
$$

ABBREVIATIONS USED IN REMARKS
   TC - TEMPERATURE IN CELSIUS
  WCI - WIND CHILL INDEX
   HX - HEAT INDEX
  VSB - VISIBILITY



USA.gov is the U.S. government's official web portal to all federal, state and local government web resources and services.